Time,TemperatureF,DewpointF,PressureIn,WindDirection,WindDirectionDegrees,WindSpeedMPH,WindSpeedGustMPH,Humidity,HourlyPrecipIn,Conditions,Clouds,dailyrainin,SolarRadiationWatts/m^2,SoftwareType,DateUTC
2013-02-21 00:11:00,46.0,33.0,-100.00,South,169,5.0,7.0,61,0.00,,,0.03,0.000000,,2013-02-21 08:11:00,
2013-02-21 00:21:00,46.0,33.0,-100.00,South,169,5.0,7.0,61,0.00,,,0.03,0.000000,,2013-02-21 08:21:00,
2013-02-21 00:31:00,46.0,33.0,-100.00,South,169,5.0,7.0,61,0.00,,,0.03,0.000000,,2013-02-21 08:31:00,
2013-02-21 00:41:00,46.0,33.0,-100.00,South,169,5.0,7.0,61,0.00,,,0.03,0.000000,,2013-02-21 08:41:00,
2013-02-21 01:11:00,45.0,33.0,-100.00,South,177,6.0,8.0,62,0.00,,,0.03,0.000000,,2013-02-21 09:11:00,
2013-02-21 01:22:00,45.0,33.0,-100.00,South,177,6.0,8.0,62,0.00,,,0.03,0.000000,,2013-02-21 09:22:00,
2013-02-21 01:31:00,45.0,33.0,-100.00,South,177,6.0,8.0,62,0.00,,,0.03,0.000000,,2013-02-21 09:31:00,
2013-02-21 01:41:00,45.0,33.0,-100.00,South,177,6.0,8.0,62,0.00,,,0.03,0.000000,,2013-02-21 09:41:00,
2013-02-21 02:11:00,44.0,33.0,-100.00,South,177,5.0,7.0,66,0.00,,,0.03,0.000000,,2013-02-21 10:11:00,
2013-02-21 02:21:00,44.0,33.0,-100.00,South,177,5.0,7.0,66,0.00,,,0.03,0.000000,,2013-02-21 10:21:00,
2013-02-21 02:31:00,44.0,33.0,-100.00,South,177,5.0,7.0,66,0.00,,,0.03,0.000000,,2013-02-21 10:31:00,
2013-02-21 02:41:00,44.0,33.0,-100.00,South,177,5.0,7.0,66,0.00,,,0.03,0.000000,,2013-02-21 10:41:00,
2013-02-21 03:01:00,43.0,33.0,-100.00,South,173,4.0,6.0,68,0.00,,,0.03,0.000000,,2013-02-21 11:01:00,
2013-02-21 03:11:00,43.0,33.0,-100.00,South,173,4.0,6.0,68,0.00,,,0.03,0.000000,,2013-02-21 11:11:00,
2013-02-21 03:21:00,43.0,33.0,-100.00,South,173,4.0,6.0,68,0.00,,,0.03,0.000000,,2013-02-21 11:21:00,
2013-02-21 03:31:00,43.0,33.0,-100.00,South,173,4.0,6.0,68,0.00,,,0.03,0.000000,,2013-02-21 11:31:00,
2013-02-21 03:41:00,43.0,33.0,-100.00,South,173,4.0,6.0,68,0.00,,,0.03,0.000000,,2013-02-21 11:41:00,
2013-02-21 04:11:00,40.0,33.0,-100.00,South,189,5.0,7.0,76,0.00,,,0.03,0.000000,,2013-02-21 12:11:00,
2013-02-21 04:21:00,40.0,33.0,-100.00,South,189,5.0,7.0,76,0.00,,,0.03,0.000000,,2013-02-21 12:21:00,
2013-02-21 04:32:00,40.0,33.0,-100.00,South,189,5.0,7.0,76,0.00,,,0.03,0.000000,,2013-02-21 12:32:00,
2013-02-21 04:42:00,40.0,33.0,-100.00,South,189,5.0,7.0,76,0.00,,,0.03,0.000000,,2013-02-21 12:42:00,
2013-02-21 05:12:00,39.0,32.0,-100.00,SSW,212,4.0,6.0,77,0.00,,,0.02,0.000000,,2013-02-21 13:12:00,
2013-02-21 05:22:00,39.0,32.0,-100.00,SSW,212,4.0,6.0,77,0.00,,,0.02,0.000000,,2013-02-21 13:22:00,
2013-02-21 05:31:00,39.0,32.0,-100.00,SSW,212,4.0,6.0,77,0.00,,,0.02,0.000000,,2013-02-21 13:31:00,
2013-02-21 05:41:00,39.0,32.0,-100.00,SSW,212,4.0,6.0,77,0.00,,,0.02,0.000000,,2013-02-21 13:41:00,
2013-02-21 06:11:00,40.0,33.0,-100.00,SSW,202,4.0,7.0,76,0.00,,,0.02,0.000000,,2013-02-21 14:11:00,
2013-02-21 06:21:00,40.0,33.0,-100.00,SSW,202,4.0,7.0,76,0.00,,,0.02,0.000000,,2013-02-21 14:21:00,
2013-02-21 06:31:00,40.0,33.0,-100.00,SSW,202,4.0,7.0,76,0.00,,,0.02,0.000000,,2013-02-21 14:31:00,
2013-02-21 06:41:00,40.0,33.0,-100.00,SSW,202,4.0,7.0,76,0.00,,,0.02,0.000000,,2013-02-21 14:41:00,
2013-02-21 07:12:00,38.0,33.0,-100.00,SSW,206,4.0,5.0,81,0.00,,,0.02,20.000000,,2013-02-21 15:12:00,
2013-02-21 07:21:00,38.0,33.0,-100.00,SSW,206,4.0,5.0,81,0.00,,,0.02,20.000000,,2013-02-21 15:21:00,
2013-02-21 07:31:00,38.0,33.0,-100.00,SSW,206,4.0,5.0,81,0.00,,,0.02,20.000000,,2013-02-21 15:31:00,
2013-02-21 07:41:00,38.0,33.0,-100.00,SSW,206,4.0,5.0,81,0.00,,,0.02,20.000000,,2013-02-21 15:41:00,
2013-02-21 08:12:00,48.0,35.0,-100.00,South,180,5.0,7.0,60,0.00,,,0.02,218.000000,,2013-02-21 16:12:00,
2013-02-21 08:21:00,48.0,35.0,-100.00,South,180,5.0,7.0,60,0.00,,,0.02,218.000000,,2013-02-21 16:21:00,
2013-02-21 08:31:00,48.0,35.0,-100.00,South,180,5.0,7.0,60,0.00,,,0.02,218.000000,,2013-02-21 16:31:00,
2013-02-21 08:42:00,48.0,35.0,-100.00,South,180,5.0,7.0,60,0.00,,,0.02,218.000000,,2013-02-21 16:42:00,
2013-02-21 09:11:00,54.0,33.0,-100.00,SSE,163,9.0,12.0,44,0.00,,,0.02,459.000000,,2013-02-21 17:11:00,
2013-02-21 09:21:00,54.0,33.0,-100.00,SSE,163,9.0,12.0,44,0.00,,,0.02,459.000000,,2013-02-21 17:21:00,
2013-02-21 09:32:00,54.0,33.0,-100.00,SSE,163,9.0,12.0,44,0.00,,,0.02,459.000000,,2013-02-21 17:32:00,
2013-02-21 09:41:00,54.0,33.0,-100.00,SSE,163,9.0,12.0,44,0.00,,,0.02,459.000000,,2013-02-21 17:41:00,
2013-02-21 10:11:00,57.0,31.0,-100.00,SSE,166,8.0,12.0,37,0.00,,,0.02,664.000000,,2013-02-21 18:11:00,
2013-02-21 10:22:00,57.0,31.0,-100.00,SSE,166,8.0,12.0,37,0.00,,,0.02,664.000000,,2013-02-21 18:22:00,
2013-02-21 10:31:00,57.0,31.0,-100.00,SSE,166,8.0,12.0,37,0.00,,,0.02,664.000000,,2013-02-21 18:31:00,
2013-02-21 10:42:00,57.0,31.0,-100.00,SSE,166,8.0,12.0,37,0.00,,,0.02,664.000000,,2013-02-21 18:42:00,
2013-02-21 11:11:00,61.0,29.0,-100.00,South,175,8.0,13.0,29,0.00,,,0.02,808.000000,,2013-02-21 19:11:00,
2013-02-21 11:21:00,61.0,29.0,-100.00,South,175,8.0,13.0,29,0.00,,,0.02,808.000000,,2013-02-21 19:21:00,
2013-02-21 11:31:00,61.0,29.0,-100.00,South,175,8.0,13.0,29,0.00,,,0.02,808.000000,,2013-02-21 19:31:00,
2013-02-21 11:41:00,61.0,29.0,-100.00,South,175,8.0,13.0,29,0.00,,,0.02,808.000000,,2013-02-21 19:41:00,
2013-02-21 12:11:00,63.0,26.0,-100.00,SW,214,7.0,14.0,24,0.00,,,0.00,884.000000,,2013-02-21 20:11:00,
2013-02-21 12:21:00,63.0,26.0,-100.00,SW,214,7.0,14.0,24,0.00,,,0.00,884.000000,,2013-02-21 20:21:00,
2013-02-21 12:31:00,63.0,26.0,-100.00,SW,214,7.0,14.0,24,0.00,,,0.00,884.000000,,2013-02-21 20:31:00,
2013-02-21 12:41:00,63.0,26.0,-100.00,SW,214,7.0,14.0,24,0.00,,,0.00,884.000000,,2013-02-21 20:41:00,
2013-02-21 13:11:00,63.0,27.0,-100.00,SSW,196,9.0,13.0,25,0.00,,,0.00,878.000000,,2013-02-21 21:11:00,
2013-02-21 13:21:00,63.0,27.0,-100.00,SSW,196,9.0,13.0,25,0.00,,,0.00,878.000000,,2013-02-21 21:21:00,
2013-02-21 13:31:00,63.0,27.0,-100.00,SSW,196,9.0,13.0,25,0.00,,,0.00,878.000000,,2013-02-21 21:31:00,
2013-02-21 13:41:00,63.0,27.0,-100.00,SSW,196,9.0,13.0,25,0.00,,,0.00,878.000000,,2013-02-21 21:41:00,
2013-02-21 14:11:00,64.0,27.0,-100.00,SW,215,6.0,12.0,25,0.00,,,0.00,616.000000,,2013-02-21 22:11:00,
2013-02-21 14:21:00,64.0,27.0,-100.00,SW,215,6.0,12.0,25,0.00,,,0.00,616.000000,,2013-02-21 22:21:00,
2013-02-21 14:31:00,64.0,27.0,-100.00,SW,215,6.0,12.0,25,0.00,,,0.00,616.000000,,2013-02-21 22:31:00,
2013-02-21 14:41:00,64.0,27.0,-100.00,SW,215,6.0,12.0,25,0.00,,,0.00,616.000000,,2013-02-21 22:41:00,
2013-02-21 15:11:00,63.0,26.0,-100.00,SW,214,5.0,12.0,24,0.00,,,0.00,457.000000,,2013-02-21 23:11:00,
2013-02-21 15:21:00,63.0,26.0,-100.00,SW,214,5.0,12.0,24,0.00,,,0.00,457.000000,,2013-02-21 23:21:00,
2013-02-21 15:31:00,63.0,26.0,-100.00,SW,214,5.0,12.0,24,0.00,,,0.00,457.000000,,2013-02-21 23:31:00,
2013-02-21 15:41:00,63.0,26.0,-100.00,SW,214,5.0,12.0,24,0.00,,,0.00,457.000000,,2013-02-21 23:41:00,
2013-02-21 16:11:00,62.0,30.0,-100.00,North,357,7.0,12.0,30,0.00,,,0.00,291.000000,,2013-02-22 00:11:00,
2013-02-21 16:21:00,62.0,30.0,-100.00,North,357,7.0,12.0,30,0.00,,,0.00,291.000000,,2013-02-22 00:21:00,
2013-02-21 16:31:00,62.0,30.0,-100.00,North,357,7.0,12.0,30,0.00,,,0.00,291.000000,,2013-02-22 00:31:00,
2013-02-21 16:41:00,62.0,30.0,-100.00,North,357,7.0,12.0,30,0.00,,,0.00,291.000000,,2013-02-22 00:41:00,
2013-02-21 17:11:00,60.0,29.0,-100.00,North,351,7.0,12.0,31,0.00,,,0.00,123.000000,,2013-02-22 01:11:00,
2013-02-21 17:21:00,60.0,29.0,-100.00,North,351,7.0,12.0,31,0.00,,,0.00,123.000000,,2013-02-22 01:21:00,
2013-02-21 17:32:00,60.0,29.0,-100.00,North,351,7.0,12.0,31,0.00,,,0.00,123.000000,,2013-02-22 01:32:00,
2013-02-21 17:42:00,60.0,29.0,-100.00,North,351,7.0,12.0,31,0.00,,,0.00,123.000000,,2013-02-22 01:42:00,
2013-02-21 18:11:00,56.0,33.0,-100.00,North,1,11.0,15.0,42,0.00,,,0.00,20.000000,,2013-02-22 02:11:00,
2013-02-21 18:21:00,56.0,33.0,-100.00,North,1,11.0,15.0,42,0.00,,,0.00,20.000000,,2013-02-22 02:21:00,
2013-02-21 18:31:00,56.0,33.0,-100.00,North,1,11.0,15.0,42,0.00,,,0.00,20.000000,,2013-02-22 02:31:00,
2013-02-21 18:42:00,56.0,33.0,-100.00,North,1,11.0,15.0,42,0.00,,,0.00,20.000000,,2013-02-22 02:42:00,
2013-02-21 19:11:00,54.0,30.0,-100.00,NNE,27,6.0,14.0,40,0.00,,,0.00,0.000000,,2013-02-22 03:11:00,
2013-02-21 19:21:00,54.0,30.0,-100.00,NNE,27,6.0,14.0,40,0.00,,,0.00,0.000000,,2013-02-22 03:21:00,
2013-02-21 19:31:00,54.0,30.0,-100.00,NNE,27,6.0,14.0,40,0.00,,,0.00,0.000000,,2013-02-22 03:31:00,
2013-02-21 19:41:00,54.0,30.0,-100.00,NNE,27,6.0,14.0,40,0.00,,,0.00,0.000000,,2013-02-22 03:41:00,
2013-02-21 20:11:00,45.0,33.0,-100.00,NW,305,5.0,7.0,63,0.00,,,0.00,0.000000,,2013-02-22 04:11:00,
2013-02-21 20:21:00,45.0,33.0,-100.00,NW,305,5.0,7.0,63,0.00,,,0.00,0.000000,,2013-02-22 04:21:00,
2013-02-21 20:32:00,45.0,33.0,-100.00,NW,305,5.0,7.0,63,0.00,,,0.00,0.000000,,2013-02-22 04:32:00,
2013-02-21 20:42:00,45.0,33.0,-100.00,NW,305,5.0,7.0,63,0.00,,,0.00,0.000000,,2013-02-22 04:42:00,
2013-02-21 21:12:00,44.0,32.0,-100.00,NNW,333,6.0,7.0,62,0.00,,,0.00,0.000000,,2013-02-22 05:12:00,
2013-02-21 21:22:00,44.0,32.0,-100.00,NNW,333,6.0,7.0,62,0.00,,,0.00,0.000000,,2013-02-22 05:22:00,
2013-02-21 21:32:00,44.0,32.0,-100.00,NNW,333,6.0,7.0,62,0.00,,,0.00,0.000000,,2013-02-22 05:32:00,
2013-02-21 21:41:00,44.0,32.0,-100.00,NNW,333,6.0,7.0,62,0.00,,,0.00,0.000000,,2013-02-22 05:41:00,
2013-02-21 22:11:00,42.0,33.0,-100.00,SSE,153,4.0,7.0,70,0.00,,,0.00,0.000000,,2013-02-22 06:11:00,
2013-02-21 22:21:00,42.0,33.0,-100.00,SSE,153,4.0,7.0,70,0.00,,,0.00,0.000000,,2013-02-22 06:21:00,
2013-02-21 23:11:00,39.0,31.0,-100.00,ESE,104,2.0,5.0,72,0.00,,,0.00,0.000000,,2013-02-22 07:11:00,